www.pogodaiklimat.ru

Погода и климат >> Архив погоды >> Индия >> Imphal


ПОГОДА в Imphal

  • Прогноз погоды в Imphal
  • Монитор погоды в Imphal
  • Климат города

АРХИВ ПОГОДЫ в Imphal

Время (UTC), дата Ветер
(напр.,м/с)
 
Видим.   Явления Облачность Т
(С)
Тd
(С)
f
(%)
Тe
(С)
Тes
(С)
Комфортность P
(гПа)
Po
(гПа)
Тmin
(С)
Tmax
(С)
R
(мм)
R24
(мм)
S
(см)
12 14.10 штиль 0 4000 м в посл. час морось {дождь} 9/6 240 м
[Frnb As op]
+20.8 +20.2 96 +25 +25 комфорт 1011.5 925.0 +23.8 2
15 14.10 штиль 0 4000 м дымка 8/4 540 м
[Sc Ac trans]
+20.2 +18.0 87 +23 +23 комфорт 1012.0 925.5 2
00 15.10 штиль 0 2000 м дымка 10/8 240 м
[Frnb As op]
+18.6 +18.3 98 +20 +20 1011.2 924.6 2
03 15.10 Ю 1 4000 м дымка 8/5 540 м
[Sc Ac trans]
+22.2 +20.4 90 +29 +31 очень
душно
1013.2 927.3 +15.5 2
06 15.10 Ю 2 4000 м мгла 8/5 540 м
[Sc Ac trans]
+26.0 +19.4 67 +31 +37 очень
душно
1011.8 926.8
09 15.10 З 3 4000 м мгла 6/5 540 м
[Sc diur, vesp Ac trans]
+27.0 +18.9 61 +32 +34 очень
душно
1009.1 924.5
12 15.10 З 3 4000 м дымка 6/4 540 м
[Sc diur, vesp Ac trans]
+23.0 +18.4 75 +29 +29 очень
душно
1010.4 924.6 +27.5
15 15.10 штиль 0 2000 м дымка 4/3 540 м
[Sc Ac trans]
+20.0 +18.4 91 +23 +23 комфорт 1012.9 926.0
00 16.10 штиль 0 2000 м дымка 9/6 240 м
[Frnb As op]
+17.0 +16.7 98 +17 +17 1012.2 925.6
03 16.10 штиль 0 4000 м дымка 4/3 540 м
[Sc diur, vesp Ci fib]
+20.0 +16.8 82 +22 +30 комфорт 1015.6 928.5 +16.5
06 16.10 ЮВ 2 4000 м мгла 3/3 540 м
[Sc]
+25.4 +18.8 67 +30 +41 душно 1011.3 926.3
09 16.10 Ю 2 4000 м мгла 3/3 540 м
[Sc]
+28.0 +18.0 55 +33 +37 очень
душно
1007.9 923.6
12 16.10 З 2 4000 м мгла 6/4 540 м
[Sc diur, vesp Ac trans]
+24.2 +18.4 70 +29 +29 душно 1009.2 924.1 +28.2
15 16.10 штиль 0 2000 м дымка 4/4 540 м
[Sc]
+19.6 +17.4 87 +22 +22 комфорт 1012.5 925.6
00 17.10 штиль 0 2000 м дымка 9/6 240 м
[Frnb As op Ci sp]
+16.6 +15.6 94 +16 +16 1013.6 925.6
03 17.10 СВ 1 4000 м дымка 4/1 540 м
[Sc diur, vesp Ac trans]
+19.8 +17.0 84 +23 +30 комфорт 1008.9 927.0 +16.0
06 17.10 Ю 2 4000 м мгла 4/1 540 м
[Sc diur, vesp Ac trans]
+25.6 +19.0 67 +31 +42 очень
душно
1010.0 925.0
09 17.10 Ю 3 4000 м мгла 3/1 540 м
[Sc Ci fib]
+26.2 +18.7 63 +31 +35 очень
душно
1006.5 922.1
12 17.10 З 3 4000 м дымка 4/1 540 м
[Sc diur, vesp Ci fib]
+21.0 +16.6 76 +25 +25 комфорт 1008.1 922.1 +26.4
15 17.10 штиль 0 4000 м дымка 4/4 540 м
[Sc]
+18.0 +15.4 85 +18 +18 1010.9 923.6
00 18.10 штиль 0 2000 м дымка 9/6 240 м
[Frnb Ac trans]
+16.2 +15.4 95 +16 +16 1011.6 924.0
03 18.10 ЮВ 2 2000 м дымка {туман} 8/8 240 м
[St]
+18.0 +15.4 85 +19 +20 1014.8 927.2 +16.0
06 18.10 ЮВ 2 4000 м мгла 5/4 540 м
[Sc]
+25.0 +18.3 66 +29 +38 душно 1010.4 925.1
09 18.10 ЮЗ 1 4000 м мгла 3/3 540 м
[Sc]
+26.6 +19.8 66 +32 +37 очень
душно
1006.9 922.5
12 18.10 штиль 0 4000 м дымка 5/3 540 м
[Sc Ac trans]
+23.0 +18.4 75 +29 +29 очень
душно
1008.5 922.9 +80.8 +26.8
15 18.10 штиль 0 4000 м дымка 3/3 540 м
[Sc]
+18.2 +15.3 83 +18 +18 1012.4 925.2
00 19.10 штиль 0 2000 м дымка 9/6 240 м
[Frnb Ac trans]
+16.4 +15.4 94 +16 +16 1013.8 926.0
03 19.10 штиль 0 4000 м дымка 4/3 540 м
[Sc Ac trans]
+20.0 +16.8 82 +22 +29 комфорт 1014.6 927.6 +13.8
06 19.10 ЮВ 1 4000 м мгла 5/3 540 м
[Sc Ac trans]
+24.8 +17.4 63 +29 +38 душно 1011.4 926.0
09 19.10 Ю 3 4000 м мгла 3/3 540 м
[Sc]
+27.4 +20.7 67 +34 +38 очень
душно
1008.3 924.0
12 19.10 штиль 0 4000 м дымка 3/3 540 м
[Sc]
+23.6 +19.1 76 +28 +28 душно 1009.3 923.8 +28.0
15 19.10 штиль 0 4000 м дымка 4/4 540 м
[Sc]
+18.0 +15.4 85 +18 +18 1013.8 926.3
00 20.10 штиль 0 1000 м дымка 9/6 240 м
[St Ac trans]
+16.6 +15.6 94 +16 +16 1014.9 927.0
03 20.10 В 1 4000 м дымка 8/6 540 м
[Sc diur, vesp Ac trans]
+20.0 +18.8 93 +24 +27 комфорт 1016.6 929.5 +15.6
06 20.10 ЮВ 1 4000 м мгла 5/5 540 м
[Sc diur, vesp]
+24.0 +17.5 67 +28 +36 душно 1013.0 927.3
09 20.10 Ю 1 4000 м мгла 4/1 540 м
[Sc diur, vesp Ac trans]
+28.0 +19.0 58 +33 +38 очень
душно
1009.0 924.7
12 20.10 З 1 4000 м мгла 5/3 540 м
[Sc Ac trans]
+24.8 +20.4 77 +31 +31 очень
душно
1010.2 925.0 +28.2
15 20.10 0 дымка н/о +15.8 1013.8 926.6
00 21.10 штиль 0 2000 м дымка 9/6 240 м
[Frnb Ac trans]
+15.4 +14.4 94 +15 +15 1015.7 927.5
03 21.10 штиль 0 4000 м дымка 8/5 600 м
[St Ac trans]
+19.0 +18.4 96 +21 +24 комфорт 1017.0 929.6 +13.8
06 21.10 Ю 2 4000 м мгла 4/3 540 м
[Sc Ac trans]
+25.2 +17.5 62 +29 +39 душно 1012.7 927.5
09 21.10 ЮЗ 1 4000 м мгла 4/3 540 м
[Sc diur, vesp Ac trans]
+28.0 +20.0 62 +34 +38 очень
душно
1009.0 924.6

 

Местоположение метеостанции Imphal (Manipur, Индия): широта 24.67 долгота 93.90 высота над уровнем моря 774 м.

В архиве по умолчанию представлена погода в Imphal за последнюю неделю. Архивные данные за месяц целиком и за предыдущие месяцы, начиная с января 2011 года, Вы можете получить, выбрав интересующий диапазон дат из раскрывающегося списка и нажав кнопку "Ввод!".


*Определитесь, кто Вы:
робот инопланетянин человек

Внимание! Время в таблицах - всемирное. Для получения местного времени необходимо прибавить поправку, которая в Imphal равна 5.5 ч.

Смотрите также архив погоды в соседних городах и на ближайших метеорологических станциях:

Погода в Haflong (Assam, Индия) (105 км)
Погода в Homalin (Мьянма) (105 км)
Погода в Kohima (Nagaland, Индия) (110 км)
Погода в Silchar (Assam, Индия) (112 км)
Погода в Mawlaik (Мьянма) (127 км)
Погода в Lumding (Assam, Индия) (140 км)
Погода в Aijal (Mizoram, Индия) (159 км)
Погода в Lengpui (Mizoram, Индия) (160 км)
Погода в Kalewa (Мьянма) (168 км)
Погода в Falam (Мьянма) (196 км)

Пояснения к столбцам:

Ветер - указаны скорость ветра в м/с - средняя за 10 мин, порывы в срок и между сроками (в фигурных скобках) и направление, откуда дует ветер: С - северный, СВ - северо-восточный, В - восточный, ЮВ - юго-восточный, Ю - южный, ЮЗ - юго-западный, З - западный, СЗ - северо-западный.
Видимость - горизонтальная дальность видимости в метрах или километрах. При видимости от 1 до 10 км при отсутствии осадков обычно наблюдается дымка, при ухудшении видимости до 1 км и менее - туман. В сухую погоду видимость может ухудшаться дымом, пылью или мглою.
Явления - указаны атмосферные явления, наблюдавшиеся в срок или в последний час перед сроком; фигурными скобками обозначены явления, наблюдавшиеся между сроками (за 1-3 часа до срока); квадратными скобками обозначены град или гололедные отложения с указанием их диаметра в мм.
Облачность - указаны через наклонную черту общая и нижняя облачность в баллах и высота нижней границы облаков в метрах; квадратными скобками обозначены формы облаков: Ci - перистые, Cs - перисто-слоистые, Cc - перисто-кучевые, Ac - высококучевые, As - высокослоистые, Sc - слоисто-кучевые, Ns - слоисто-дождевые, Cu - кучевые, Cb - кучево-дождевые. Подробнее классификацию облаков см. в Атласе облаков (PDF).
T - Температура воздуха - температура, измеренная на высоте 2 м над землей.
Td - Температура точки росы - температура, при понижении до которой содержащийся в воздухе водяной пар достигнет насыщения.
f - Относительная влажность воздуха - влажноcть воздуха, измеренная на высоте 2 м над землей.
Te - Эффективная температура - температура, которую ощущает одетый по сезону человек в тени. Характеристика душности погоды. При расчете учитывается влияние влажности воздуха и скорости ветра на теплоощущения человека.
Tes - Эффективная температура на солнце - температура, которую ощущает человек, с поправкой на солнечный нагрев. Характеристика знойности погоды. Зависит от высоты солнца над горизонтом, облачности и скорости ветра. Ночью, в пасмурную погоду, а также при ветре 12 м/с и более поправка равна нулю.
P - Атмосферное давление - приведенное к уровню моря атмосферное давление.
Po - Атмосферное давление - измеренное на уровне метеостанции атмосферное давление.
Tmin - Минимальная температура - минимум температуры воздуха на высоте 2 м над землей.
Tmax - Максимальная температура - максимум температуры воздуха на высоте 2 м над землей.
R - Количество осадков - Количество выпавших осадков за период времени, мм. При наведении курсора мыши на число - период времени, за который выпало указанное количество осадков.
R24 - Количество осадков - Количество выпавших осадков за 24 часа, мм.
S - Снежный покров - Высота снежного покрова, см. При наведении курсора мыши на число - состояние снежного покрова и степень покрытия местности в баллах.